Terre Haute, IN

2:23 PM EDT on March 29, 2017 (GMT -0400)
Terre Haute International-Hulman

Weather History for KHUF - April, 2013

Change the Weather History Date:

Saturday, April 20, 2013

  Actual Average Record
Temperature  
Mean Temperature 41 °F 55 °F  
Max Temperature 50 °F 66 °F 84 °F (1985)
Min Temperature 32 °F 44 °F 30 °F (1956)
Degree Days  
Heating Degree Days 24 11  
Month to date heating degree days 253 274  
Since 1 July heating degree days 5058 5128  
Cooling Degree Days 0 1  
Month to date cooling degree days 5 6  
Year to date cooling degree days 5 7  
Moisture  
Dew Point 29 °F    
Average Humidity 68    
Maximum Humidity 89    
Minimum Humidity 46    
Precipitation  
Precipitation 0.00 in 0.13 in 1.15 in (1964)
Month to date precipitation 5.15 2.20  
Year to date precipitation 14.33 9.86  
Sea Level Pressure  
Sea Level Pressure 30.25 in    
Wind  
Wind Speed 6 mph (NW)    
Max Wind Speed 13 mph    
Max Gust Speed 16 mph    
Visibility 10 miles    
Events      
T = Trace of Precipitation, MM = Missing Value Source: NWS Daily Summary

Daily Weather History Graph

Daily Weather History Graph

Search for Another Location

Airport or City:

Trip Planner

Search our weather history database for the weather conditions in past years. The results will help you decide how hot, cold, wet, or windy it might be!

Date:

Astronomy

Apr. 20, 2013 Rise Set
Actual Time 7:04 AM EDT 8:32 PM EDT
Civil Twilight 6:36 AM EDT 9:00 PM EDT
Nautical Twilight 6:02 AM EDT 9:34 PM EDT
Astronomical Twilight 5:26 AM EDT 10:10 PM EDT
Moon 3:17 PM EDT (4/20) 3:52 AM EDT (4/20)
Length of Visible Light 14h 24m
Length of Day
13h 27m
Waxing Gibbous, 71% of the Moon is Illuminated
Apr 20
Waxing Gibbous
Apr 25
Full
May 2
Last Quarter
May 9
New
May 18
First Quarter

Hourly Weather History & Observations

Time (EDT) Temp. Windchill Dew Point Humidity Pressure Visibility Wind Dir Wind Speed Gust Speed Precip Events Conditions
12:53 AM 35.1 °F - 32.0 °F 89% 30.04 in 10.0 mi Calm Calm - N/A   Clear
1:53 AM 37.0 °F 32.4 °F 33.1 °F 86% 30.06 in 10.0 mi West 5.8 mph - N/A   Partly Cloudy
2:53 AM 36.0 °F 31.1 °F 32.0 °F 86% 30.07 in 10.0 mi West 5.8 mph - N/A   Partly Cloudy
3:53 AM 34.0 °F 28.8 °F 30.9 °F 89% 30.08 in 10.0 mi West 5.8 mph - N/A   Clear
4:53 AM 34.0 °F 28.8 °F 30.0 °F 85% 30.09 in 10.0 mi West 5.8 mph - N/A   Clear
5:53 AM 33.1 °F 27.7 °F 28.0 °F 82% 30.12 in 10.0 mi West 5.8 mph - N/A   Clear
6:53 AM 32.0 °F 26.4 °F 28.0 °F 85% 30.15 in 10.0 mi West 5.8 mph - N/A   Clear
7:53 AM 34.0 °F - 28.0 °F 79% 30.19 in 10.0 mi Calm Calm - N/A   Clear
8:53 AM 37.0 °F 31.0 °F 28.0 °F 70% 30.22 in 10.0 mi West 8.1 mph - N/A   Clear
9:53 AM 39.0 °F 33.4 °F 28.9 °F 67% 30.25 in 10.0 mi NNW 8.1 mph - N/A   Partly Cloudy
10:53 AM 41.0 °F 34.3 °F 28.9 °F 62% 30.27 in 10.0 mi NNW 11.5 mph - 0.01 in   Partly Cloudy
11:53 AM 43.0 °F 37.7 °F 28.9 °F 58% 30.30 in 10.0 mi West 9.2 mph - N/A   Scattered Clouds
12:53 PM 44.1 °F 40.1 °F 28.0 °F 53% 30.30 in 10.0 mi West 6.9 mph - N/A   Mostly Cloudy
1:53 PM 45.0 °F 40.6 °F 28.9 °F 53% 30.31 in 10.0 mi NW 8.1 mph - N/A   Mostly Cloudy
2:53 PM 46.0 °F 43.1 °F 28.0 °F 50% 30.32 in 10.0 mi Variable 5.8 mph 16.1 mph N/A   Mostly Cloudy
3:53 PM 48.0 °F - 28.9 °F 48% 30.32 in 10.0 mi Variable 3.5 mph - N/A   Mostly Cloudy
4:53 PM 48.9 °F - 28.9 °F 46% 30.31 in 10.0 mi WNW 9.2 mph - N/A   Mostly Cloudy
5:53 PM 46.9 °F - 30.0 °F 52% 30.32 in 10.0 mi North 8.1 mph - N/A   Mostly Cloudy
6:53 PM 46.9 °F - 28.9 °F 50% 30.32 in 10.0 mi NW 4.6 mph - N/A   Overcast
7:53 PM 46.0 °F 43.9 °F 28.0 °F 50% 30.33 in 10.0 mi North 4.6 mph - N/A   Mostly Cloudy
8:53 PM 43.0 °F - 28.9 °F 58% 30.36 in 10.0 mi Calm Calm - N/A   Clear
9:53 PM 39.0 °F 36.8 °F 30.9 °F 73% 30.38 in 10.0 mi North 3.5 mph - N/A   Clear
10:53 PM 37.0 °F 33.3 °F 30.0 °F 76% 30.40 in 10.0 mi NNE 4.6 mph - N/A   Clear
11:53 PM 36.0 °F 33.3 °F 28.9 °F 76% 30.42 in 10.0 mi NE 3.5 mph - N/A   Clear